#timestamp,LO_Frequency,Hit,StdDev 
1669280415.7,286046998.1,N
1669280435.5,286047000.8,N
1669280455.4,286047001.1,N
1669280475.2,286046998.6,N
1669280495.1,286046998.7,N
1669280496.0,286046998.7,N
1669280515.8,286047001.2,N
1669280535.6,286046998.6,N
1669280555.5,286047000.7,N
1669280575.3,286047000.9,N
1669280595.1,286046998.4,N
1669280615.9,286046998.7,N
1669280635.7,286046999.3,N
1669280655.6,286046998.5,N
1669280675.4,286047001.0,N
1669280695.2,286047000.7,N
1669280715.1,286047001.0,N
1669280716.0,286047001.0,N
1669280735.8,286047001.0,N
1669280755.7,286047000.0,N
1669280775.5,286047002.3,N
1669280795.3,286047000.1,N
1669280815.2,286047001.2,N
1669280835.9,286046998.9,N
1669280855.7,286046996.7,N
1669280875.6,286046998.0,N
1669280895.4,286046994.9,Y
1669280915.3,286046998.0,P
1669280935.1,286046997.9,N
1669280936.0,286046997.9,N
1669280955.8,286046998.8,N
1669280975.7,286046998.6,N
1669280995.5,286047000.7,N
1669281015.4,286047000.9,N
1669281035.2,286047000.6,N
1669281055.0,286046999.7,N
1669281055.9,286046999.7,N
1669281075.8,286047002.3,N
1669281095.6,286047000.1,N
1669281115.4,286047001.8,N
1669281135.3,286047002.2,N
1669281155.1,286047001.9,N
1669281175.9,286047001.6,N
1669281195.7,286047002.0,N
1669281215.5,286047002.0,N
1669281235.4,286047002.6,N
1669281255.2,286047002.5,N
1669281275.0,286047001.9,N
1669281275.9,286047001.9,N
1669281295.8,286047001.6,N
1669281315.6,286047001.5,N
1669281335.5,286047002.7,N
1669281355.3,286047002.5,N
1669281375.1,286047000.1,N
1669281395.9,286047000.1,N
1669281415.7,286047002.5,N
1669281435.5,286047001.8,N
1669281455.4,286047001.7,N
1669281475.2,286047001.9,N
1669281495.1,286047001.5,N
1669281496.0,286047001.5,N
1669281515.8,286047002.0,N
1669281535.6,286047001.9,N
1669281555.5,286047001.6,N
1669281575.3,286047002.1,N
1669281595.1,286047002.8,Y
1669281615.9,286046998.8,P
1669281635.7,286046996.6,N
1669281655.6,286046999.5,N
1669281675.4,286046998.9,N
1669281695.2,286047000.7,N
1669281715.1,286047000.4,N
1669281716.0,286047000.4,N
1669281735.8,286046999.9,N
1669281755.6,286047000.9,N
1669281775.5,286046999.8,N
1669281795.3,286047000.3,N
1669281815.2,286047002.8,N
1669281835.9,286047006.8,Y
1669281855.4,286047004.5,P
1669281875.3,286047005.6,N
1669281895.1,286047001.5,N
1669281915.8,286047003.9,N
1669281935.7,286047003.3,N
1669281955.5,286047003.1,N
1669281975.4,286047003.1,N
1669281995.2,286047001.8,N
1669282015.0,286047002.3,N
1669282015.9,286047002.3,N
1669282035.8,286047002.2,N
1669282055.6,286047000.3,N
1669282075.4,286047000.5,N
1669282095.3,286047000.4,N
1669282115.1,286047000.8,N
1669282135.9,286046998.4,N
1669282155.7,286046999.4,N
1669282175.6,286046999.3,N
1669282195.4,286046997.0,N
1669282215.2,286046998.9,N
1669282235.1,286046998.1,N
1669282236.0,286046998.1,N
1669282255.8,286046998.2,N
1669282275.6,286047000.9,N
1669282295.5,286046998.1,N
1669282315.3,286046998.9,N
1669282335.2,286046996.5,N
1669282355.9,286046998.0,N
1669282375.7,286046995.4,N
1669282395.6,286046996.0,N
1669282415.4,286046996.3,N
1669282435.3,286046996.0,N
1669282455.1,286046997.3,N
1669282456.0,286046997.3,N
1669282475.8,286046996.4,N
1669282495.7,286046997.6,N
1669282515.5,286046995.6,N
1669282535.3,286046996.2,N
1669282555.2,286046998.0,N
1669282575.0,286046997.9,N
1669282575.9,286046997.9,N
1669282595.8,286046997.1,N
1669282615.6,286046997.2,N
1669282635.4,286046997.8,N
1669282655.3,286046997.7,N
1669282675.1,286046996.9,N
1669282695.8,286046997.1,N
1669282715.7,286046997.8,N
1669282735.5,286046997.8,N
1669282755.4,286046997.0,N
1669282775.2,286046997.1,N
1669282795.0,286046999.4,N
1669282795.9,286046999.4,N
1669282815.8,286046999.3,N
1669282835.6,286046998.3,N
1669282855.4,286046998.7,N
1669282875.3,286046996.6,Y
1669282895.1,286046997.0,P
1669282915.9,286046996.1,P
1669282935.7,286046997.9,P
1669282955.5,286046997.6,Y
1669282975.4,286046999.2,P
1669282995.2,286046999.0,N
1669283015.0,286046998.4,N
1669283016.0,286046998.4,N
1669283035.8,286046999.3,N
1669283055.6,286047001.0,N
1669283075.5,286047000.2,N
1669283095.3,286047000.1,N
1669283115.1,286047002.7,N
1669283135.9,286047001.6,N
1669283155.7,286047001.7,N
1669283175.6,286047004.2,N
1669283195.4,286047004.4,N
1669283215.2,286047003.5,N
1669283235.1,286047002.5,N
1669283236.0,286047002.5,N
1669283255.8,286046998.5,N
1669283275.7,286047002.7,N
1669283295.5,286047001.0,N
1669283315.4,286047000.4,N
1669283335.2,286047000.9,N
1669283355.0,286047000.0,N
1669283355.9,286047000.0,N
1669283375.8,286047001.3,N
1669283395.6,286047002.2,N
1669283415.5,286046999.7,N
1669283435.3,286047000.5,N
1669283455.1,286047002.8,N
1669283475.9,286047001.8,N
1669283495.7,286047002.2,N
1669283515.5,286047001.9,N
1669283535.4,286047001.7,N
1669283555.2,286047001.8,N
1669283575.1,286047003.2,N
1669283576.0,286047003.2,N
1669283595.8,286047003.4,N
1669283645.7,286047006.0,E
1669283655.6,286047002.5,N
1669283675.4,286046996.6,P
1669283695.3,286046996.9,N
1669283715.1,286046998.9,N
1669283735.8,286046998.1,N
1669283755.7,286046998.2,N
1669283775.5,286047000.3,N
1669283795.4,286046996.6,N
1669283815.2,286046997.3,N
1669283835.0,286046996.8,N
1669283835.9,286046996.8,N
1669283855.8,286046996.9,N
1669283875.6,286046999.6,N
1669283895.4,286046996.7,N
1669283915.3,286046996.6,N
1669283935.1,286046999.4,N
1669283955.9,286046998.1,N
1669283975.7,286046998.6,N
1669283995.5,286046998.6,N
